[[{"header":{"parameterUnit":"m.s-1","parameterCategory":2,"la1":30.2991,"la2":30.254,"lo1":-89.0895,"lo2":-89.0444,"dy":0.0017,"dx":0.0017,"nx":28,"ny":28,"refTime":"2024-09-02T09:00:00:Z","depth":"0","parameterNumber":2,"parameterNumberName":"U-component_of_CURRENTS"},"data":[0,0,0,0,0,0,0,0,0,0,0,0,0,0,0,0,0,0,0,0,0,0,0,0,0,0,0,0,0,0,0,0,0,0,0,0,0,0,0,0,0,0,0,0,0,0,0,0,0,0,0,0,0,0,0,0,0,0,0.2226,0.2227,0,0.2333,0.2335,0.2336,0.2377,0.2377,0.2377,0.2377,0.2479,0.2482,0.2485,0,0,0,0,0,0,0,0,0,0,0,0,0,0.2049,0.2052,0.2226,0.2227,0.2229,0.2333,0.2335,0.2336,0.2378,0.2377,0.2377,0.2376,0.2478,0.2482,0.2485,0,0,0,0,0,0,0,0,0,0,0,0,0,0.2138,0.2053,0.2226,0.2262,0.2266,0.2333,0.2335,0.2336,0.2378,0.2377,0.2377,0.2376,0.2477,0.2481,0.2486,0.2523,0,0,0.2499,0.2501,0,0,0,0,0,0,0,0,0.2133,0.2145,0.2255,0.2259,0.2264,0.2341,0.231,0.2399,0.2378,0.2336,0.2377,0.2376,0.2433,0.2441,0.2462,0.2528,0.2532,0.25,0.2503,0.2505,0.2506,0,0,0,0,0,0,0,0.2127,0.2141,0.2269,0.2257,0.2262,0.227,0.2282,0.2327,0.2386,0.2339,0.2342,0.2354,0.2435,0.2458,0.2465,0.2534,0.25,0.2504,0.2507,0.2508,0.261,0.261,0,0,0,0,0,0,0.2115,0.2135,0.2265,0.2272,0.2196,0.2273,0.2287,0.2317,0.2385,0.2395,0.2354,0.2356,0.245,0.246,0.2469,0.2504,0.2505,0.2509,0.2511,0.261,0.261,0.261,0,0,0,0,0,0,0.2111,0.2126,0.2261,0.2204,0.2222,0.2277,0.2311,0.232,0.2339,0.2397,0.2407,0.2364,0.245,0.2462,0.2505,0.2508,0.2511,0.2515,0.261,0.261,0.261,0.2582,0,0,0,0,0,0,0.2106,0.2125,0.2139,0.2204,0.2225,0.2302,0.2311,0.2322,0.2347,0.235,0.2408,0.2418,0.2451,0.2498,0.251,0.2514,0.2519,0.261,0.261,0.261,0.2583,0.2581,0.2579,0,0,0,0,0,0.21,0.2123,0.214,0.2155,0.2244,0.2303,0.2314,0.2351,0.2348,0.2364,0.2396,0.2416,0.2505,0.2502,0.2516,0.2522,0.261,0.261,0.261,0.2584,0.2581,0.2579,0,0,0,0,0,0,0.2042,0.2131,0.2151,0.2196,0.2245,0.231,0.2325,0.2347,0.2386,0.2379,0.2426,0.2439,0.2473,0.2501,0.2497,0.2548,0.2557,0.256,0.2532,0.2531,0.2529,0.2506,0.2522,0,0,0,0,0,0.2039,0.2084,0.2158,0.2189,0.2214,0.2266,0.2291,0.2315,0.2359,0.2375,0.2415,0.245,0.2485,0.251,0.2545,0.2584,0.2582,0.2592,0.259,0.2589,0.2578,0.2583,0.2581,0.2609,0.2609,0.2609,0,0,0.202,0.2075,0.2097,0.218,0.2217,0.2259,0.228,0.2315,0.2341,0.238,0.2419,0.2447,0.2492,0.253,0.2547,0.2555,0.2576,0.2589,0.2587,0.2577,0.2583,0.258,0.2577,0.2609,0.2609,0.2609,0,0,0.2011,0.2058,0.2096,0.2141,0.2204,0.224,0.2248,0.2312,0.2332,0.2377,0.2401,0.2427,0.2494,0.2522,0.2545,0.2556,0.2563,0.2566,0.2547,0.2553,0.255,0.2548,0.2525,0.2521,0.2569,0.2569,0.2569,0,0.1978,0.2052,0.2109,0.2156,0.2189,0.223,0.2265,0.2297,0.2361,0.2372,0.2382,0.245,0.2489,0.2524,0.2526,0.2551,0.2544,0.2553,0.2549,0.2547,0.2545,0.2523,0.2519,0.2568,0.2568,0.2568,0.2568,0,0.2013,0.2062,0.2083,0.2163,0.2199,0.2235,0.2288,0.231,0.2331,0.2359,0.2389,0.2436,0.2471,0.249,0.2516,0.2523,0.2517,0.2542,0.2552,0.254,0.2518,0.2514,0.2566,0.2566,0.2567,0.2567,0,0,0.1964,0.2085,0.2091,0.2129,0.2208,0.2239,0.2271,0.2318,0.2323,0.2366,0.2374,0.2431,0.2433,0.2457,0.2487,0.2497,0.2479,0.251,0.2511,0.2481,0.2465,0.2422,0.2414,0.2502,0.2502,0.2502,0.2448,0,0.1972,0.2058,0.2116,0.217,0.2217,0.2259,0.2285,0.2317,0.234,0.2353,0.2379,0.24,0.2429,0.2437,0.2449,0.2473,0.2469,0.2489,0.2485,0.2484,0.2443,0.2409,0.2239,0.2174,0.2444,0.2444,0.2443,0,0.1994,0.2054,0.2118,0.2189,0.2208,0.2232,0.2266,0.2297,0.2316,0.2327,0.2337,0.2356,0.237,0.2395,0.2411,0.242,0.2431,0.2448,0.2447,0.2413,0.2435,0.2233,0.2157,0.1929,0.2438,0.2438,0.2439,0,0.1956,0.2049,0.2099,0.2129,0.2212,0.2222,0.2249,0.2278,0.2288,0.2298,0.2288,0.2313,0.231,0.2337,0.2364,0.2386,0.2367,0.2408,0.2375,0.2372,0.2228,0.2213,0.1924,0.2408,0.2408,0.2408,0.2408,0,0.1958,0.1994,0.208,0.2109,0.2137,0.2193,0.2201,0.2227,0.2237,0.2228,0.226,0.2245,0.2295,0.2295,0.2332,0.2322,0.234,0.2349,0.2353,0.2213,0.2197,0.1997,0.1963,0.2406,0.2406,0.2407,0.2407,0,0.1918,0.1982,0.2041,0.2115,0.2128,0.2143,0.2174,0.2175,0.2185,0.2169,0.2166,0.2178,0.2177,0.2216,0.2247,0.2264,0.2174,0.2275,0.2092,0.2076,0.1849,0.1824,0.1696,0.1676,0.2224,0.2222,0.2221,0,0.1912,0.1945,0.2027,0.2049,0.208,0.2105,0.2114,0.2143,0.2137,0.2125,0.2105,0.2097,0.2085,0.2093,0.2122,0.2146,0.2079,0.1995,0.2021,0.1778,0.1754,0.1793,0.1791,0.1808,0.1804,0.18,0.1797,0,0.1899,0.1929,0.1977,0.2023,0.2043,0.2056,0.2066,0.2056,0.2071,0.2041,0.2003,0.1991,0.1985,0.1915,0.1936,0.1944,0.1824,0.1924,0.1706,0.1422,0.1411,0.1412,0.1891,0.1765,0.1768,0.177,0.1772,0.1773,0.1879,0.1903,0.1966,0.1997,0.2019,0.2009,0.1976,0.1975,0.1945,0.1858,0.19,0.1779,0.1665,0.168,0.1694,0.1451,0.165,0.1318,0.1312,0.1378,0.1329,0.1733,0.1605,0.1607,0.1609,0.1611,0.1612,0,0.1856,0.1892,0.1932,0.1966,0.1956,0.1975,0.1939,0.1869,0.1795,0.1708,0.165,0.138,0.123,0.1125,0.0902,0.0784,0.0878,0.0682,0.0621,0.0664,0.0986,0.0928,0.0604,0.0604,0.0604,0.0604,0.0605,0.0605,0.185,0.1876,0.1898,0.1892,0.1898,0.1819,0.1772,0.1668,0.1566,0.1317,0.1094,0.1013,0.0694,0.0301,0.0022,0.0068,0.0045,0.0057,0.015,0.022,0.0276,0.033,0.0256,-0.0204,-0.0205,-0.0225,-0.0226,-0.0227]},{"header":{"parameterUnit":"m.s-1","parameterCategory":2,"la1":30.2991,"la2":30.254,"lo1":-89.0895,"lo2":-89.0444,"dy":0.0017,"dx":0.0017,"nx":28,"ny":28,"refTime":"2024-09-02T09:00:00:Z","depth":"0","parameterNumber":3,"parameterNumberName":"V-component_of_CURRENTS"},"data":[0,0,0,0,0,0,0,0,0,0,0,0,0,0,0,0,0,0,0,0,0,0,0,0,0,0,0,0,0,0,0,0,0,0,0,0,0,0,0,0,0,0,0,0,0,0,0,0,0,0,0,0,0,0,0,0,0,0,-0.1026,-0.1028,0,-0.1167,-0.1169,-0.1171,-0.1225,-0.1224,-0.1224,-0.1223,-0.1302,-0.1304,-0.1307,0,0,0,0,0,0,0,0,0,0,0,0,0,-0.0805,-0.0809,-0.1026,-0.1028,-0.1029,-0.1167,-0.1169,-0.1171,-0.1225,-0.1224,-0.1223,-0.1223,-0.1301,-0.1304,-0.1307,0,0,0,0,0,0,0,0,0,0,0,0,0,-0.092,-0.081,-0.1026,-0.1072,-0.1078,-0.1167,-0.1169,-0.1172,-0.1225,-0.1224,-0.1223,-0.1223,-0.13,-0.1303,-0.1307,-0.1345,0,0,-0.1319,-0.132,0,0,0,0,0,0,0,0,-0.0913,-0.0928,-0.1064,-0.1069,-0.1075,-0.1177,-0.112,-0.1226,-0.1225,-0.117,-0.1223,-0.1222,-0.1254,-0.1262,-0.1292,-0.1349,-0.1352,-0.1319,-0.1321,-0.1323,-0.1324,0,0,0,0,0,0,0,-0.0905,-0.0922,-0.1083,-0.1065,-0.1073,-0.1087,-0.1102,-0.1141,-0.1214,-0.1175,-0.1179,-0.1193,-0.1257,-0.1288,-0.1294,-0.1354,-0.1319,-0.1322,-0.1325,-0.1326,-0.1448,-0.1449,0,0,0,0,0,0,-0.0888,-0.0915,-0.1078,-0.1087,-0.099,-0.1091,-0.1109,-0.1146,-0.1215,-0.1225,-0.1194,-0.1195,-0.1282,-0.1289,-0.1297,-0.1362,-0.1323,-0.1327,-0.1329,-0.1447,-0.1448,-0.1449,0,0,0,0,0,0,-0.0883,-0.0902,-0.1073,-0.1002,-0.1024,-0.1096,-0.1137,-0.1149,-0.118,-0.123,-0.1239,-0.1211,-0.1282,-0.1291,-0.1345,-0.1364,-0.1328,-0.1332,-0.1446,-0.1447,-0.1448,-0.1482,0,0,0,0,0,0,-0.0877,-0.09,-0.0919,-0.1002,-0.1028,-0.1129,-0.1138,-0.1152,-0.1189,-0.1193,-0.1248,-0.1255,-0.1282,-0.1339,-0.1349,-0.1369,-0.1335,-0.1444,-0.1446,-0.1448,-0.148,-0.1485,-0.1489,0,0,0,0,0,-0.0869,-0.0903,-0.092,-0.0939,-0.1053,-0.113,-0.1145,-0.1192,-0.119,-0.1214,-0.1254,-0.1253,-0.1356,-0.1344,-0.1355,-0.1376,-0.1444,-0.1446,-0.1448,-0.1478,-0.1484,-0.1488,0,0,0,0,0,0,-0.081,-0.0914,-0.0934,-0.0996,-0.1056,-0.1139,-0.1166,-0.1191,-0.1244,-0.1241,-0.1278,-0.129,-0.134,-0.1353,-0.1339,-0.1414,-0.1395,-0.1399,-0.1414,-0.1419,-0.1424,-0.1391,-0.1338,0,0,0,0,0,-0.0808,-0.0865,-0.0949,-0.0996,-0.1027,-0.1092,-0.1126,-0.1159,-0.1215,-0.1238,-0.1279,-0.1316,-0.1359,-0.1384,-0.1421,-0.1471,-0.145,-0.1487,-0.1491,-0.1495,-0.1475,-0.1473,-0.1475,-0.1456,-0.1456,-0.1456,0,0,-0.0795,-0.0859,-0.089,-0.0987,-0.1037,-0.1096,-0.1112,-0.1167,-0.1213,-0.1237,-0.1306,-0.1334,-0.1374,-0.1433,-0.1455,-0.1447,-0.149,-0.1497,-0.15,-0.1478,-0.1475,-0.1477,-0.1478,-0.1457,-0.1457,-0.1457,0,0,-0.0804,-0.0859,-0.091,-0.0966,-0.1044,-0.1091,-0.1103,-0.1187,-0.1223,-0.129,-0.1316,-0.1353,-0.1426,-0.1462,-0.1487,-0.1534,-0.1511,-0.1544,-0.1548,-0.1548,-0.1548,-0.1549,-0.1526,-0.1525,-0.155,-0.155,-0.155,0,-0.0778,-0.0867,-0.0931,-0.0992,-0.1037,-0.1087,-0.114,-0.1192,-0.128,-0.1302,-0.131,-0.1399,-0.1437,-0.1497,-0.1519,-0.1543,-0.1527,-0.1529,-0.1552,-0.1552,-0.1552,-0.1528,-0.1526,-0.1552,-0.1552,-0.1552,-0.1551,0,-0.0835,-0.0898,-0.0931,-0.1031,-0.1082,-0.1136,-0.1211,-0.1253,-0.1287,-0.133,-0.1386,-0.1439,-0.1479,-0.1509,-0.1535,-0.1562,-0.1545,-0.1555,-0.1535,-0.1555,-0.153,-0.1527,-0.1555,-0.1554,-0.1553,-0.1553,0,0,-0.0798,-0.0942,-0.0952,-0.0999,-0.1107,-0.1152,-0.1221,-0.1295,-0.1316,-0.1385,-0.1412,-0.1497,-0.1493,-0.1519,-0.1551,-0.1562,-0.1563,-0.1558,-0.1558,-0.1528,-0.1541,-0.1438,-0.1424,-0.1577,-0.1577,-0.1577,-0.1524,0,-0.082,-0.0927,-0.0998,-0.1083,-0.1144,-0.1206,-0.1261,-0.1322,-0.1365,-0.1401,-0.1442,-0.1478,-0.151,-0.1518,-0.1538,-0.1555,-0.1555,-0.1575,-0.1531,-0.1528,-0.1429,-0.1418,-0.1271,-0.1203,-0.152,-0.152,-0.1519,0,-0.0858,-0.0927,-0.1012,-0.1115,-0.1142,-0.1184,-0.1252,-0.1309,-0.1364,-0.139,-0.1419,-0.1445,-0.148,-0.1492,-0.1514,-0.1524,-0.1525,-0.1534,-0.1533,-0.1414,-0.1419,-0.1234,-0.1185,-0.1097,-0.1514,-0.1514,-0.1515,0,-0.0811,-0.0937,-0.0997,-0.1037,-0.1153,-0.1177,-0.1224,-0.1288,-0.1316,-0.1362,-0.1362,-0.1413,-0.1415,-0.1439,-0.1459,-0.1485,-0.1456,-0.1497,-0.1402,-0.1395,-0.1246,-0.1225,-0.1093,-0.1489,-0.1489,-0.1489,-0.1489,0,-0.0822,-0.0872,-0.097,-0.1004,-0.1041,-0.1134,-0.1157,-0.1208,-0.1252,-0.1254,-0.1332,-0.1324,-0.1399,-0.14,-0.1429,-0.1382,-0.1428,-0.1376,-0.1367,-0.1254,-0.1235,-0.1132,-0.1109,-0.1487,-0.1488,-0.1488,-0.1488,0,-0.0774,-0.085,-0.0911,-0.1004,-0.1023,-0.1039,-0.1101,-0.1112,-0.1168,-0.1165,-0.1171,-0.1241,-0.1232,-0.1284,-0.1307,-0.1315,-0.1214,-0.1277,-0.1124,-0.1096,-0.0922,-0.0907,-0.0757,-0.0716,-0.116,-0.1157,-0.1154,0,-0.0768,-0.0797,-0.0869,-0.0874,-0.0909,-0.0945,-0.096,-0.1044,-0.105,-0.1098,-0.1078,-0.109,-0.1056,-0.1049,-0.1061,-0.1053,-0.1061,-0.0936,-0.0961,-0.0857,-0.0836,-0.0853,-0.0833,-0.0786,-0.0781,-0.0777,-0.0773,0,-0.0736,-0.0748,-0.0782,-0.0788,-0.0799,-0.0819,-0.0847,-0.084,-0.0916,-0.0898,-0.0868,-0.0842,-0.0833,-0.0735,-0.0741,-0.0761,-0.0802,-0.0844,-0.0779,-0.0544,-0.051,-0.0484,-0.0877,-0.0734,-0.0738,-0.0741,-0.0743,-0.0745,-0.0678,-0.0676,-0.0699,-0.0696,-0.0702,-0.0686,-0.0664,-0.0674,-0.0645,-0.059,-0.0623,-0.0517,-0.0451,-0.042,-0.0445,-0.0379,-0.0495,-0.0352,-0.0347,-0.0381,-0.0306,-0.0593,-0.0419,-0.0421,-0.0422,-0.0424,-0.0425,0,-0.0613,-0.0616,-0.061,-0.0601,-0.0567,-0.0601,-0.0582,-0.0535,-0.0444,-0.0372,-0.0285,-0.0114,0.0033,0.0013,0.0086,0.0124,0.0054,0.0121,0.013,0.0114,-0.0152,-0.0099,0.0207,0.0207,0.0207,0.0207,0.0207,0.0206,-0.0575,-0.0556,-0.0556,-0.048,-0.0458,-0.0391,-0.0357,-0.0279,-0.0212,-0.0037,0.0084,0.0137,0.0165,0.0427,0.0528,0.0502,0.0498,0.054,0.0455,0.0288,0.0243,0.02,0.0256,0.0631,0.0631,0.0749,0.0751,0.0752]}],[{"header":{"parameterUnit":"m.s-1","parameterCategory":2,"la1":30.2991,"la2":30.254,"lo1":-89.0895,"lo2":-89.0444,"dy":0.0017,"dx":0.0017,"nx":28,"ny":28,"refTime":"2024-09-02T09:00:00:Z","depth":"2","parameterNumber":2,"parameterNumberName":"U-component_of_CURRENTS"},"data":[0,0,0,0,0,0,0,0,0,0,0,0,0,0,0,0,0,0,0,0,0,0,0,0,0,0,0,0,0,0,0,0,0,0,0,0,0,0,0,0,0,0,0,0,0,0,0,0,0,0,0,0,0,0,0,0,0,0,0.0957,0.0957,0,0.0917,0.0917,0.0916,0.091,0.0911,0.0912,0.0912,0.0887,0.0886,0.0885,0,0,0,0,0,0,0,0,0,0,0,0,0,0.0979,0.0979,0.0957,0.0957,0.0957,0.0917,0.0917,0.0916,0.091,0.0911,0.0912,0.0913,0.0888,0.0886,0.0884,0,0,0,0,0,0,0,0,0,0,0,0,0,0.0955,0.0979,0.0957,0.0951,0.0951,0.0918,0.0917,0.0916,0.091,0.0911,0.0912,0.0913,0.0888,0.0886,0.0884,0.0853,0,0,0.0879,0.0878,0,0,0,0,0,0,0,0,0.0956,0.0954,0.0952,0.0952,0.0951,0.0922,0.0915,0.0897,0.091,0.0922,0.0912,0.0913,0.0901,0.0898,0.0885,0.0852,0.0851,0.0878,0.0877,0.0876,0.0876,0,0,0,0,0,0,0,0.0958,0.0955,0.0938,0.0952,0.0951,0.0934,0.0932,0.0911,0.0905,0.0921,0.0922,0.0921,0.0901,0.0886,0.0884,0.0851,0.0878,0.0877,0.0876,0.0875,0.0872,0.0873,0,0,0,0,0,0,0.097,0.0957,0.094,0.0938,0.0959,0.0933,0.0931,0.0928,0.0905,0.0903,0.0921,0.0921,0.0889,0.0886,0.0883,0.0931,0.0876,0.0875,0.0874,0.0871,0.0872,0.0873,0,0,0,0,0,0,0.0971,0.0969,0.0941,0.0949,0.0945,0.0933,0.0929,0.0927,0.0944,0.0905,0.0903,0.0945,0.089,0.0886,0.0888,0.0927,0.0874,0.0872,0.0869,0.0871,0.0873,0.0971,0,0,0,0,0,0,0.0971,0.0969,0.0982,0.095,0.0945,0.0947,0.0929,0.0926,0.0942,0.0944,0.0924,0.0921,0.089,0.0891,0.0886,0.0923,0.0871,0.0868,0.087,0.0872,0.0966,0.0976,0.0984,0,0,0,0,0,0.0972,0.0974,0.0982,0.0981,0.0959,0.0948,0.0944,0.0936,0.0943,0.0955,0.094,0.0923,0.0901,0.089,0.0884,0.0921,0.0867,0.087,0.0872,0.0962,0.0974,0.0983,0,0,0,0,0,0,0.0984,0.0973,0.0981,0.098,0.0982,0.0949,0.0955,0.0957,0.0953,0.0962,0.0929,0.0924,0.0945,0.0914,0.0904,0.0926,0.0884,0.0886,0.0955,0.0965,0.0974,0.0999,0.0869,0,0,0,0,0,0.0996,0.0999,0.0991,0.0994,0.0998,0.0987,0.0987,0.0988,0.0975,0.0976,0.0966,0.0952,0.0943,0.0941,0.0926,0.0931,0.0933,0.0952,0.0961,0.0969,0.0985,0.1036,0.1052,0.0881,0.0881,0.0881,0,0,0.1,0.0996,0.0998,0.0998,0.0995,0.1005,0.0989,0.1,0.1015,0.0973,0.0996,0.0986,0.0952,0.0963,0.097,0.0946,0.1015,0.0972,0.0979,0.0991,0.104,0.1057,0.1072,0.0883,0.0882,0.0882,0,0,0.1006,0.1011,0.1022,0.1028,0.1041,0.1033,0.1049,0.1046,0.1057,0.1069,0.1052,0.1074,0.1044,0.1043,0.1032,0.1079,0.1063,0.1071,0.1132,0.1182,0.1197,0.1211,0.1224,0.1238,0.1071,0.1071,0.1071,0,0.1017,0.1026,0.1024,0.104,0.105,0.1055,0.1076,0.1079,0.1082,0.1102,0.1092,0.1102,0.1087,0.1109,0.1127,0.1105,0.1113,0.1096,0.1197,0.121,0.1222,0.1233,0.1247,0.1076,0.1075,0.1075,0.1074,0,0.1033,0.1049,0.1055,0.1078,0.1092,0.1107,0.1119,0.1148,0.1165,0.1173,0.1218,0.1202,0.1212,0.1213,0.1182,0.1257,0.1228,0.1209,0.1177,0.1246,0.1252,0.1265,0.1083,0.1081,0.108,0.1079,0,0,0.1029,0.1061,0.1067,0.1091,0.1117,0.1127,0.1166,0.1202,0.1236,0.1262,0.1304,0.1321,0.1335,0.1325,0.1307,0.1349,0.1442,0.132,0.132,0.1345,0.1534,0.1419,0.1421,0.1444,0.1448,0.145,0.15,0,0.1047,0.1081,0.1097,0.1138,0.1156,0.1184,0.1215,0.1255,0.1281,0.1321,0.1348,0.137,0.1367,0.1375,0.143,0.1424,0.1482,0.1429,0.1453,0.1453,0.1354,0.1435,0.1177,0.1192,0.1512,0.1514,0.1516,0,0.1053,0.1081,0.1122,0.1172,0.1186,0.1218,0.1282,0.1312,0.1368,0.139,0.1443,0.1443,0.1503,0.1488,0.1571,0.1535,0.1561,0.1566,0.1567,0.1438,0.1364,0.1176,0.1203,0.1537,0.1535,0.1534,0.1532,0,0.1036,0.1092,0.1128,0.1145,0.1204,0.1246,0.1286,0.1344,0.1373,0.1436,0.1456,0.1525,0.1544,0.1607,0.162,0.1606,0.1696,0.1672,0.1603,0.1593,0.1366,0.1331,0.1774,0.1774,0.1774,0.1774,0.1774,0,0.1026,0.1058,0.1131,0.1149,0.1208,0.1256,0.1318,0.1362,0.142,0.145,0.1496,0.1514,0.1582,0.162,0.1649,0.1654,0.173,0.1635,0.1614,0.1388,0.1356,0.1645,0.1629,0.1775,0.1775,0.1775,0.1774,0,0.0985,0.1032,0.1074,0.1159,0.1193,0.1236,0.1324,0.1357,0.142,0.1456,0.1473,0.1524,0.1571,0.1619,0.1693,0.1665,0.1689,0.1682,0.1392,0.1336,0.1546,0.1535,0.1612,0.1608,0.1605,0.1603,0.1601,0,0.0962,0.0981,0.1067,0.1101,0.1145,0.1221,0.1262,0.1344,0.1369,0.1446,0.1446,0.1508,0.1496,0.1541,0.1513,0.1528,0.1655,0.1311,0.1252,0.1566,0.1538,0.1531,0.1523,0.0985,0.0978,0.0972,0.0968,0,0.0921,0.0953,0.0991,0.1056,0.1112,0.1165,0.1233,0.1244,0.1325,0.1337,0.1338,0.1332,0.1347,0.1202,0.122,0.1212,0.1279,0.1197,0.1621,0.106,0.0978,0.0949,0.0962,0.0918,0.0923,0.0926,0.0929,0.0931,0.0891,0.0899,0.095,0.1011,0.1066,0.1097,0.1108,0.1136,0.114,0.11,0.1153,0.1026,0.1007,0.0858,0.0863,0.0864,0.0997,0.0905,0.0922,0.0945,0.0858,0.0775,0.0659,0.0662,0.0665,0.0668,0.067,0,0.0842,0.0872,0.0909,0.0961,0.0979,0.105,0.1076,0.1021,0.0966,0.0888,0.0824,0.0585,0.0439,0.0493,0.0371,0.0389,0.0404,0.0394,0.0362,0.0407,0.0448,0.0339,0.0001,0.0001,0.0,-0.0,0,0,0.0827,0.0826,0.0842,0.0866,0.0914,0.0905,0.0905,0.0802,0.071,0.0522,0.0371,0.0294,0.0321,0.01,0.0107,0.0029,0.0237,0.0018,0.0525,0.0523,0.0564,0.0683,0.0556,0,0,0,0,0]},{"header":{"parameterUnit":"m.s-1","parameterCategory":2,"la1":30.2991,"la2":30.254,"lo1":-89.0895,"lo2":-89.0444,"dy":0.0017,"dx":0.0017,"nx":28,"ny":28,"refTime":"2024-09-02T09:00:00:Z","depth":"2","parameterNumber":3,"parameterNumberName":"V-component_of_CURRENTS"},"data":[0,0,0,0,0,0,0,0,0,0,0,0,0,0,0,0,0,0,0,0,0,0,0,0,0,0,0,0,0,0,0,0,0,0,0,0,0,0,0,0,0,0,0,0,0,0,0,0,0,0,0,0,0,0,0,0,0,0,0.0167,0.0167,0,0.019,0.0191,0.0191,0.017,0.0169,0.0168,0.0167,0.0108,0.0107,0.0107,0,0,0,0,0,0,0,0,0,0,0,0,0,0.0131,0.0131,0.0167,0.0167,0.0167,0.019,0.0191,0.0191,0.017,0.0169,0.0168,0.0167,0.0108,0.0107,0.0107,0,0,0,0,0,0,0,0,0,0,0,0,0,0.0151,0.0131,0.0167,0.0158,0.0158,0.019,0.0191,0.0191,0.0171,0.0169,0.0168,0.0166,0.0108,0.0107,0.0107,0.013,0,0,0.0104,0.0103,0,0,0,0,0,0,0,0,0.015,0.0152,0.0159,0.0159,0.0158,0.0175,0.0156,0.0166,0.0171,0.0167,0.0167,0.0165,0.0123,0.0121,0.0131,0.0127,0.0125,0.0103,0.0103,0.0102,0.0102,0,0,0,0,0,0,0,0.0148,0.0151,0.0177,0.016,0.0159,0.0163,0.0164,0.0159,0.0153,0.0167,0.0166,0.0166,0.0122,0.0133,0.013,0.0124,0.0103,0.0103,0.0102,0.0102,0.0095,0.0095,0,0,0,0,0,0,0.0143,0.015,0.0177,0.0178,0.0149,0.0164,0.0166,0.0172,0.0154,0.0151,0.0168,0.0165,0.0135,0.0131,0.0127,0.0107,0.0102,0.0102,0.0101,0.0094,0.0095,0.0095,0,0,0,0,0,0,0.0142,0.0145,0.0176,0.0163,0.0167,0.0166,0.0174,0.0173,0.0163,0.0155,0.015,0.0155,0.0134,0.0129,0.0114,0.0106,0.0101,0.01,0.0094,0.0095,0.0095,0.0096,0,0,0,0,0,0,0.0141,0.0145,0.0144,0.0163,0.0167,0.0188,0.0175,0.0175,0.0167,0.0163,0.0143,0.0138,0.0132,0.0116,0.0113,0.0104,0.0099,0.0093,0.0094,0.0095,0.0095,0.0096,0.0097,0,0,0,0,0,0.014,0.0149,0.0144,0.0146,0.0167,0.0188,0.0191,0.0187,0.0167,0.017,0.0154,0.0137,0.0119,0.0116,0.0112,0.0103,0.0093,0.0094,0.0095,0.0095,0.0096,0.0097,0,0,0,0,0,0,0.0133,0.0149,0.0142,0.0155,0.0165,0.0184,0.0186,0.0179,0.0172,0.0157,0.0144,0.0138,0.0124,0.0118,0.0115,0.0105,0.0102,0.0103,0.0103,0.0105,0.0106,0.0119,0.0099,0,0,0,0,0,0.0131,0.0141,0.0154,0.0163,0.0166,0.0171,0.0175,0.017,0.017,0.0164,0.0149,0.0135,0.0132,0.0119,0.0118,0.011,0.0125,0.0103,0.0104,0.0105,0.0115,0.0146,0.0151,0.0098,0.0098,0.0098,0,0,0.0132,0.014,0.0145,0.0161,0.0167,0.018,0.017,0.0173,0.0176,0.0159,0.0147,0.0137,0.0133,0.0128,0.012,0.0116,0.0125,0.0106,0.0107,0.0116,0.0147,0.0153,0.0157,0.0099,0.0099,0.0099,0,0,0.0149,0.0143,0.016,0.0167,0.0173,0.0176,0.0172,0.0177,0.0169,0.0162,0.0153,0.0147,0.0125,0.0136,0.0135,0.0143,0.0133,0.0124,0.0132,0.0162,0.0167,0.0171,0.0184,0.0189,0.012,0.012,0.012,0,0.0143,0.0169,0.0168,0.0184,0.019,0.0172,0.0189,0.0185,0.0181,0.0182,0.0153,0.015,0.0139,0.0157,0.0152,0.0146,0.0149,0.0125,0.0164,0.0168,0.0173,0.0185,0.0191,0.012,0.012,0.012,0.012,0,0.0182,0.0191,0.02,0.0214,0.0219,0.0228,0.0223,0.0216,0.019,0.0188,0.0184,0.0176,0.0173,0.0166,0.0153,0.0177,0.0164,0.0164,0.016,0.0178,0.019,0.0196,0.012,0.012,0.012,0.012,0,0,0.0197,0.0223,0.0224,0.0235,0.0232,0.0246,0.0243,0.0253,0.0256,0.0229,0.0241,0.0227,0.0207,0.0207,0.0193,0.0211,0.0233,0.0188,0.0189,0.02,0.0279,0.0286,0.0293,0.023,0.0232,0.0233,0.027,0,0.0225,0.0266,0.0268,0.0292,0.0311,0.0293,0.03,0.0298,0.0281,0.0282,0.0268,0.0259,0.0225,0.021,0.0225,0.0235,0.0251,0.0223,0.0261,0.0263,0.0267,0.0302,0.0306,0.0341,0.0276,0.0277,0.0278,0,0.0267,0.0286,0.0322,0.034,0.0346,0.0348,0.0356,0.0358,0.0353,0.0336,0.0322,0.0297,0.0302,0.027,0.03,0.0274,0.0274,0.0284,0.0286,0.0301,0.0283,0.0316,0.0356,0.0289,0.0288,0.0287,0.0286,0,0.0298,0.0325,0.0354,0.0359,0.0374,0.0377,0.0372,0.037,0.0373,0.0356,0.0345,0.0348,0.0327,0.0346,0.0321,0.0311,0.0359,0.0357,0.0372,0.0371,0.039,0.039,0.0396,0.0396,0.0396,0.0396,0.0396,0,0.0336,0.0356,0.0364,0.0381,0.0404,0.0396,0.041,0.0405,0.0397,0.0406,0.0359,0.0369,0.034,0.0344,0.0347,0.037,0.0377,0.0389,0.0392,0.0389,0.0387,0.0354,0.0349,0.0398,0.0397,0.0397,0.0397,0,0.0366,0.0377,0.0411,0.0423,0.0421,0.0431,0.0421,0.0435,0.0407,0.0416,0.04,0.0379,0.0381,0.0359,0.0387,0.0394,0.0427,0.0429,0.0413,0.0414,0.0416,0.041,0.0482,0.0483,0.0484,0.0484,0.0485,0,0.0388,0.0408,0.0436,0.0451,0.0449,0.0452,0.0457,0.0438,0.045,0.0437,0.0454,0.0428,0.0461,0.0485,0.047,0.0486,0.0443,0.0482,0.0486,0.0435,0.043,0.0423,0.0417,0.0503,0.0503,0.0504,0.0504,0,0.0419,0.0426,0.0453,0.0482,0.0492,0.0509,0.0509,0.0524,0.0508,0.0535,0.0583,0.0611,0.0585,0.0603,0.0556,0.0562,0.0484,0.0495,0.0462,0.0478,0.0457,0.0451,0.0444,0.0509,0.0508,0.0508,0.0508,0.0507,0.0432,0.045,0.048,0.0512,0.0533,0.0561,0.0574,0.0601,0.065,0.0665,0.0699,0.0711,0.0693,0.0652,0.0616,0.0522,0.0562,0.0537,0.0535,0.0532,0.0526,0.0507,0.0566,0.0566,0.0566,0.0566,0.0566,0,0.0442,0.046,0.05,0.0545,0.0591,0.0576,0.0608,0.0634,0.0711,0.0716,0.0771,0.0738,0.0758,0.0657,0.0561,0.0565,0.0539,0.0509,0.0484,0.0483,0.0482,0.0469,0.0496,0.0495,0.0494,0.0493,0,0,0.0444,0.0482,0.0507,0.0584,0.0609,0.064,0.0656,0.0698,0.0709,0.0741,0.0714,0.0778,0.0736,0.0646,0.0622,0.0533,0.0494,0.0507,0.0578,0.0554,0.055,0.0529,0.0514,0,0,0,0,0]}],[{"header":{"parameterUnit":"m.s-1","parameterCategory":2,"la1":30.2991,"la2":30.254,"lo1":-89.0895,"lo2":-89.0444,"dy":0.0017,"dx":0.0017,"nx":28,"ny":28,"refTime":"2024-09-02T09:00:00:Z","depth":"4","parameterNumber":2,"parameterNumberName":"U-component_of_CURRENTS"},"data":[0,0,0,0,0,0,0,0,0,0,0,0,0,0,0,0,0,0,0,0,0,0,0,0,0,0,0,0,0,0,0,0,0,0,0,0,0,0,0,0,0,0,0,0,0,0,0,0,0,0,0,0,0,0,0,0,0,0,-0.0343,-0.0343,0,-0.0353,-0.0353,-0.0353,-0.035,-0.035,-0.035,-0.035,-0.0341,-0.034,-0.034,0,0,0,0,0,0,0,0,0,0,0,0,0,-0.0281,-0.0282,-0.0343,-0.0343,-0.0343,-0.0353,-0.0353,-0.0353,-0.035,-0.035,-0.035,-0.035,-0.0341,-0.034,-0.034,0,0,0,0,0,0,0,0,0,0,0,0,0,-0.0301,-0.0283,-0.0343,-0.0343,-0.0343,-0.0353,-0.0353,-0.0353,-0.035,-0.035,-0.035,-0.0349,-0.0341,-0.034,-0.034,-0.0345,0,0,-0.034,-0.034,0,0,0,0,0,0,0,0,-0.03,-0.0303,-0.0343,-0.0343,-0.0343,-0.035,-0.0328,-0.035,-0.035,-0.0347,-0.035,-0.0349,-0.0342,-0.0342,-0.0345,-0.0345,-0.0344,-0.034,-0.034,-0.034,-0.034,0,0,0,0,0,0,0,-0.0299,-0.0303,-0.0347,-0.0343,-0.0343,-0.0329,-0.0332,-0.0332,-0.0346,-0.0348,-0.0347,-0.0349,-0.0342,-0.0345,-0.0344,-0.0344,-0.034,-0.034,-0.034,-0.034,-0.0326,-0.0326,0,0,0,0,0,0,-0.0301,-0.0302,-0.0346,-0.0347,-0.0321,-0.0331,-0.0334,-0.0348,-0.0346,-0.0346,-0.0349,-0.0349,-0.0345,-0.0344,-0.0344,-0.0329,-0.034,-0.034,-0.034,-0.0326,-0.0326,-0.0325,0,0,0,0,0,0,-0.03,-0.0305,-0.0346,-0.0324,-0.0328,-0.0332,-0.0348,-0.0348,-0.0355,-0.0348,-0.0347,-0.0356,-0.0345,-0.0344,-0.0342,-0.0329,-0.034,-0.034,-0.0327,-0.0326,-0.0326,-0.0312,0,0,0,0,0,0,-0.0298,-0.0305,-0.032,-0.0325,-0.0329,-0.0355,-0.0348,-0.0349,-0.0357,-0.0356,-0.0353,-0.0352,-0.0344,-0.0343,-0.0342,-0.0329,-0.034,-0.0327,-0.0326,-0.0326,-0.0313,-0.0312,-0.031,0,0,0,0,0,-0.0296,-0.0315,-0.0321,-0.0326,-0.0349,-0.0355,-0.0356,-0.0357,-0.0357,-0.0362,-0.0356,-0.0352,-0.0338,-0.0343,-0.0342,-0.0329,-0.0327,-0.0326,-0.0326,-0.0314,-0.0312,-0.031,0,0,0,0,0,0,-0.0293,-0.0317,-0.0323,-0.0349,-0.0353,-0.0355,-0.0361,-0.0362,-0.0363,-0.0361,-0.0354,-0.0353,-0.0347,-0.0343,-0.0348,-0.0323,-0.033,-0.0329,-0.0321,-0.0319,-0.0318,-0.027,-0.034,0,0,0,0,0,-0.0301,-0.0326,-0.0336,-0.0356,-0.0359,-0.0362,-0.0366,-0.0366,-0.0365,-0.0366,-0.0361,-0.0352,-0.0344,-0.0336,-0.0334,-0.0322,-0.0296,-0.0312,-0.031,-0.0309,-0.027,-0.022,-0.021,-0.0323,-0.0323,-0.0323,0,0,-0.0303,-0.0322,-0.0334,-0.0357,-0.036,-0.0359,-0.0363,-0.037,-0.0363,-0.0364,-0.0355,-0.0355,-0.0343,-0.0329,-0.0325,-0.0322,-0.0272,-0.0308,-0.0307,-0.0268,-0.0218,-0.0207,-0.0197,-0.0323,-0.0323,-0.0323,0,0,-0.0314,-0.0338,-0.0356,-0.036,-0.037,-0.0366,-0.0369,-0.0371,-0.0367,-0.0362,-0.0357,-0.0336,-0.0339,-0.0309,-0.0299,-0.0285,-0.0273,-0.03,-0.0242,-0.0196,-0.0185,-0.0175,-0.0162,-0.0151,-0.0289,-0.0289,-0.0289,0,-0.031,-0.0342,-0.0358,-0.0368,-0.0367,-0.0368,-0.0368,-0.0362,-0.0361,-0.0341,-0.0357,-0.0319,-0.0316,-0.0269,-0.0257,-0.0277,-0.0261,-0.0253,-0.0191,-0.0181,-0.0171,-0.0159,-0.0147,-0.0288,-0.0289,-0.0289,-0.0289,0,-0.0324,-0.0349,-0.0356,-0.0369,-0.0367,-0.037,-0.0359,-0.0349,-0.0344,-0.0324,-0.029,-0.0279,-0.0236,-0.0249,-0.0244,-0.0174,-0.0193,-0.0204,-0.0192,-0.0158,-0.0149,-0.0137,-0.0287,-0.0288,-0.0288,-0.0288,0,0,-0.03,-0.0358,-0.0355,-0.0368,-0.0368,-0.0366,-0.0344,-0.0314,-0.0278,-0.027,-0.0223,-0.0193,-0.0163,-0.0146,-0.0143,-0.01,-0.0035,-0.0112,-0.011,-0.0091,0.0049,-0.0023,-0.0017,-0.0038,-0.0035,-0.0033,0.0014,0,-0.0299,-0.0337,-0.0351,-0.0356,-0.037,-0.0353,-0.0329,-0.0297,-0.026,-0.0214,-0.0178,-0.0138,-0.0132,-0.0109,-0.0057,-0.0042,0.0004,-0.0047,0.0009,0.0011,-0.005,-0.0002,-0.0023,0.0023,0.0026,0.0028,0.003,0,-0.0285,-0.0324,-0.035,-0.0364,-0.0361,-0.035,-0.0292,-0.0265,-0.0189,-0.0161,-0.0087,-0.0061,0.002,-0.0,0.0098,0.0062,0.0082,0.0083,0.0085,0.0037,-0.0036,-0.0009,0.0053,0.0051,0.0049,0.0048,0.0046,0,-0.0261,-0.0302,-0.0332,-0.0338,-0.0355,-0.0338,-0.0314,-0.0241,-0.0201,-0.0107,-0.0066,0.0025,0.0067,0.0124,0.0152,0.0138,0.0225,0.0199,0.0151,0.0144,0.0188,0.0178,0.0284,0.0284,0.0284,0.0284,0.0284,0,-0.0242,-0.0255,-0.0329,-0.0342,-0.0344,-0.0333,-0.0278,-0.0237,-0.0161,-0.0105,-0.0022,0.002,0.0105,0.0156,0.0179,0.0205,0.026,0.019,0.017,0.0184,0.0173,0.0194,0.0183,0.0286,0.0285,0.0285,0.0285,0,-0.0196,-0.0252,-0.029,-0.0334,-0.0341,-0.0328,-0.0281,-0.023,-0.0156,-0.0081,-0.0052,0.0039,0.0099,0.0154,0.0223,0.023,0.0254,0.0244,0.0245,0.0218,0.0134,0.0123,0.0219,0.0217,0.0215,0.0214,0.0213,0,-0.0176,-0.0205,-0.0285,-0.0313,-0.0334,-0.0317,-0.0297,-0.0234,-0.0183,-0.0086,-0.0062,0.0017,0.007,0.0124,0.0171,0.0216,0.0207,0.0232,0.0215,0.0166,0.0137,0.0128,0.0119,0.0211,0.021,0.021,0.021,0,-0.0137,-0.0178,-0.0221,-0.0301,-0.0315,-0.0313,-0.0283,-0.0255,-0.0176,-0.0115,-0.0062,-0.0015,0.0036,0.0086,0.0124,0.0149,0.0229,0.0216,0.022,0.0204,0.0158,0.0128,0.0121,0.0205,0.0205,0.0206,0.0206,0,-0.0104,-0.0133,-0.0217,-0.0275,-0.0305,-0.0315,-0.0296,-0.026,-0.0213,-0.0115,-0.0115,-0.0041,0.0013,0.0048,0.0073,0.0103,0.0105,0.0118,0.0127,0.0133,0.0084,0.0011,0.0025,0,0,0,0,0,-0.007,-0.0115,-0.0181,-0.0261,-0.0292,-0.0312,-0.0295,-0.027,-0.021,-0.0178,-0.0141,-0.0103,-0.0047,-0.0019,-0.0003,0.0029,0.01,0.0047,0.0118,0.0177,0.0182,0.0132,0,0,0,0,0,0,-0.0062,-0.0111,-0.0177,-0.024,-0.0282,-0.0306,-0.0299,-0.0268,-0.0249,-0.0189,-0.0163,-0.0109,-0.0061,-0.0055,-0.0003,0.0007,0.0051,0.0087,0.0087,0.0173,0.0178,0.0183,0.0134,0,0,0,0,0]},{"header":{"parameterUnit":"m.s-1","parameterCategory":2,"la1":30.2991,"la2":30.254,"lo1":-89.0895,"lo2":-89.0444,"dy":0.0017,"dx":0.0017,"nx":28,"ny":28,"refTime":"2024-09-02T09:00:00:Z","depth":"4","parameterNumber":3,"parameterNumberName":"V-component_of_CURRENTS"},"data":[0,0,0,0,0,0,0,0,0,0,0,0,0,0,0,0,0,0,0,0,0,0,0,0,0,0,0,0,0,0,0,0,0,0,0,0,0,0,0,0,0,0,0,0,0,0,0,0,0,0,0,0,0,0,0,0,0,0,0.0475,0.0476,0,0.0516,0.0517,0.0517,0.0539,0.0539,0.0539,0.0539,0.0551,0.0551,0.0552,0,0,0,0,0,0,0,0,0,0,0,0,0,0.0396,0.0398,0.0475,0.0476,0.0476,0.0516,0.0517,0.0517,0.0539,0.0539,0.0539,0.0539,0.0551,0.0551,0.0552,0,0,0,0,0,0,0,0,0,0,0,0,0,0.0433,0.0398,0.0475,0.0492,0.0494,0.0516,0.0517,0.0517,0.0539,0.0539,0.0539,0.0539,0.0551,0.0551,0.0552,0.0553,0,0,0.0553,0.0553,0,0,0,0,0,0,0,0,0.0431,0.0436,0.0489,0.0491,0.0493,0.0522,0.0493,0.0528,0.0539,0.0521,0.0539,0.0539,0.0539,0.054,0.0548,0.0554,0.0554,0.0553,0.0553,0.0553,0.0554,0,0,0,0,0,0,0,0.0429,0.0434,0.0491,0.0489,0.0492,0.0491,0.0496,0.05,0.0529,0.0523,0.0525,0.0529,0.054,0.0548,0.0548,0.0554,0.0553,0.0553,0.0554,0.0554,0.0604,0.0605,0,0,0,0,0,0,0.0425,0.0432,0.049,0.0493,0.0462,0.0492,0.0498,0.0513,0.0529,0.0532,0.0529,0.053,0.0547,0.0548,0.0549,0.0585,0.0553,0.0554,0.0554,0.0603,0.0605,0.0606,0,0,0,0,0,0,0.0423,0.043,0.0488,0.0463,0.047,0.0494,0.051,0.0514,0.0528,0.0534,0.0537,0.054,0.0547,0.0548,0.0564,0.0584,0.0554,0.0554,0.0602,0.0604,0.0605,0.0635,0,0,0,0,0,0,0.0421,0.043,0.0443,0.0463,0.0471,0.0503,0.051,0.0514,0.0531,0.0532,0.0545,0.0546,0.0547,0.0563,0.0564,0.0584,0.0555,0.0601,0.0603,0.0605,0.0633,0.0638,0.0642,0,0,0,0,0,0.0418,0.0434,0.0444,0.0451,0.0488,0.0503,0.0508,0.0524,0.0531,0.0537,0.0552,0.0545,0.0577,0.0564,0.0565,0.0586,0.06,0.0602,0.0605,0.0631,0.0637,0.0642,0,0,0,0,0,0,0.0405,0.0438,0.0449,0.0475,0.0489,0.0507,0.052,0.0527,0.0545,0.055,0.0554,0.0557,0.0577,0.0578,0.0564,0.0608,0.0589,0.0592,0.0609,0.0614,0.0619,0.0627,0.0555,0,0,0,0,0,0.041,0.0432,0.0455,0.0475,0.0485,0.0504,0.0514,0.0524,0.0539,0.0547,0.0559,0.0574,0.0587,0.0598,0.0606,0.0628,0.062,0.0644,0.0648,0.0652,0.0661,0.0646,0.0649,0.0614,0.0614,0.0614,0,0,0.0407,0.0431,0.0442,0.0474,0.049,0.0509,0.0511,0.0529,0.0545,0.0545,0.0576,0.0585,0.0595,0.0621,0.0631,0.0626,0.0663,0.0655,0.0658,0.0665,0.0649,0.0652,0.0655,0.0615,0.0615,0.0615,0,0,0.0411,0.0439,0.0458,0.0474,0.0501,0.0515,0.0521,0.0545,0.0559,0.0585,0.0592,0.0617,0.0636,0.0654,0.0663,0.0697,0.0681,0.0701,0.0737,0.0722,0.0725,0.0727,0.0739,0.0742,0.071,0.071,0.071,0,0.041,0.0442,0.0462,0.0484,0.0503,0.0519,0.0539,0.0555,0.0581,0.0602,0.0598,0.0643,0.0655,0.0687,0.0711,0.0708,0.0701,0.0713,0.0726,0.0728,0.073,0.0742,0.0744,0.0712,0.0712,0.0711,0.0711,0,0.0426,0.0455,0.0467,0.0507,0.0524,0.0546,0.0569,0.0588,0.061,0.0635,0.0669,0.0681,0.0716,0.0722,0.0733,0.0759,0.0753,0.0725,0.0709,0.0735,0.0746,0.0749,0.0714,0.0714,0.0713,0.0713,0,0,0.042,0.047,0.0478,0.05,0.0542,0.0557,0.0587,0.0627,0.0659,0.0679,0.0708,0.0752,0.0771,0.0783,0.079,0.0787,0.0808,0.0772,0.0771,0.0779,0.0793,0.0735,0.0732,0.0772,0.0772,0.0773,0.0803,0,0.0432,0.0474,0.0499,0.0539,0.0562,0.059,0.0622,0.0657,0.0692,0.0722,0.0736,0.0774,0.0789,0.081,0.0811,0.0805,0.0812,0.0804,0.0772,0.0772,0.0711,0.0731,0.0773,0.0804,0.0805,0.0805,0.0805,0,0.0444,0.0473,0.0514,0.0564,0.0579,0.0616,0.0675,0.0712,0.0759,0.0776,0.0812,0.0819,0.0853,0.0831,0.0848,0.084,0.0834,0.0816,0.0815,0.0751,0.0717,0.077,0.0809,0.0809,0.0808,0.0808,0.0808,0,0.0431,0.0484,0.052,0.0538,0.0595,0.0634,0.0689,0.0751,0.0788,0.0833,0.0855,0.087,0.0897,0.0869,0.0875,0.086,0.0858,0.0827,0.077,0.0767,0.0796,0.0794,0.0823,0.0823,0.0823,0.0823,0.0822,0,0.0436,0.0466,0.0528,0.055,0.0608,0.0661,0.0744,0.0781,0.0839,0.0885,0.0912,0.0917,0.0906,0.0903,0.0877,0.0843,0.0871,0.0784,0.0765,0.0812,0.0811,0.0799,0.0796,0.0824,0.0823,0.0823,0.0823,0,0.042,0.0457,0.0499,0.0573,0.0607,0.0665,0.0784,0.0836,0.0904,0.095,0.0963,0.0975,0.0972,0.0954,0.0915,0.0869,0.0818,0.0798,0.0881,0.0865,0.0739,0.0738,0.073,0.0728,0.0727,0.0725,0.0724,0,0.0419,0.0438,0.0513,0.0554,0.0605,0.0705,0.0772,0.0856,0.0907,0.0972,0.0974,0.0995,0.0992,0.0908,0.088,0.0821,0.0799,0.0784,0.0736,0.0745,0.0727,0.0728,0.0729,0.0722,0.0721,0.0721,0.072,0,0.0413,0.0441,0.0472,0.0548,0.0627,0.0705,0.0814,0.0826,0.0914,0.0976,0.0959,0.0925,0.0919,0.086,0.0838,0.0784,0.0789,0.0767,0.0769,0.0723,0.0734,0.0719,0.0721,0.0715,0.0715,0.0716,0.0716,0,0.0411,0.0428,0.047,0.0539,0.0623,0.0683,0.0738,0.0796,0.0839,0.0903,0.0889,0.0894,0.0918,0.0842,0.0803,0.0762,0.073,0.0686,0.0692,0.0698,0.0664,0.0672,0.0622,0,0,0,0,0,0.0407,0.0424,0.0471,0.0541,0.0618,0.0671,0.0749,0.0795,0.0863,0.0838,0.0862,0.0842,0.0782,0.077,0.0712,0.0757,0.0721,0.0685,0.0673,0.0683,0.069,0.0648,0,0,0,0,0,0,0.0407,0.0436,0.0452,0.0523,0.0579,0.0661,0.07,0.0739,0.0728,0.0787,0.0757,0.0806,0.0757,0.0824,0.0709,0.0704,0.0676,0.0693,0.069,0.068,0.0685,0.0691,0.065,0,0,0,0,0]}]]